Location: Bakhuizen
(52.8696°N, 5.4575°E)
Time: 06:14:46
(UTC+00:00)

ARIANE 5 R/B - Pass Details

Date: 11 May 2021
Orbit: 620 x 656 km, 98.1° (Epoch: 13 June)

Event Time Altitude Azimuth Distance (km) Brightness Sun altitude
Exits shadow 20:52:23 12° 168° (SSE) 1,864 4.5 -10.8°
Maximum altitude 20:56:24 79° 256° (WSW) 639 2.6 -11.2°
Drops below altitude 10° 21:00:45 10° 343° (NNW) 2,003 6.4 -11.6°
Sets 21:02:58 0° 345° (NNW) 2,916 7.4 -11.8°
